Location: Gerlach
(40.6516°N, 119.3568°W)
Time: 09:40:58
(UTC-08:00)

Explorer 11/Cluster Stage 4 - Visible Passes

Search period start: 30 January 2023 00:00
Search period end: 09 February 2023 00:00
Orbit: 466 x 1244 km, 28.8° (Epoch: 29 January)

Date Brightness Start Highest point End Pass type
(mag) Time Alt. Az. Time Alt. Az. Time Alt. Az.
30 Jan 9.8 04:28:24 10° SSE 04:30:15 11° SSE 04:32:06 10° SE visible
30 Jan 9.3 06:12:02 10° SSW 06:18:14 24° SSE 06:24:09 10° ESE visible
31 Jan 9.7 04:13:42 10° S 04:16:42 12° SSE 04:19:45 10° SE visible
31 Jan 9.2 05:58:17 10° SW 06:04:42 26° SSE 06:10:55 10° ESE visible
01 Feb 9.5 04:00:22 12° S 04:03:09 14° SSE 04:06:55 10° ESE visible
01 Feb 9.0 05:44:35 10° SW 05:51:10 28° SSE 05:57:37 10° ESE visible
02 Feb 9.4 03:48:17 15° SSE 03:49:35 15° SSE 03:53:52 10° ESE visible
02 Feb 8.9 05:30:56 10° SW 05:37:36 29° SSE 05:44:16 10° ESE visible
03 Feb 9.3 03:36:05 17° SSE 03:36:05 17° SSE 03:40:40 10° ESE visible
03 Feb 8.8 05:18:04 13° SW 05:24:02 30° SSE 05:30:50 10° ESE visible
04 Feb 9.3 03:23:47 17° SE 03:23:47 17° SE 03:27:22 10° ESE visible
04 Feb 8.7 05:05:45 18° SW 05:10:27 31° S 05:17:22 10° ESE visible
05 Feb 9.4 03:11:23 16° SE 03:11:23 16° SE 03:13:59 10° ESE visible
05 Feb 8.6 04:53:21 23° SSW 04:56:52 32° S 05:03:52 10° ESE visible
06 Feb 9.6 02:58:56 14° ESE 02:58:56 14° ESE 03:00:32 10° ESE visible
06 Feb 8.4 04:40:54 27° SSW 04:43:18 32° S 04:50:18 10° ESE visible
06 Feb 8.7 06:24:47 10° WSW 06:31:40 33° S 06:38:42 10° SE visible
07 Feb 9.7 02:46:27 12° ESE 02:46:27 12° ESE 02:47:01 10° ESE visible
07 Feb 8.3 04:28:24 31° SSW 04:29:43 33° S 04:36:41 10° ESE visible
07 Feb 8.7 06:11:21 10° WSW 06:18:04 32° S 06:25:03 10° SE visible
08 Feb 8.3 04:15:52 32° S 04:16:09 32° S 04:23:02 10° ESE visible
08 Feb 8.6 05:57:57 10° WSW 06:04:28 31° S 06:11:21 10° SE visible
